Time,TemperatureF,DewpointF,PressureIn,WindDirection,WindDirectionDegrees,WindSpeedMPH,WindSpeedGustMPH,Humidity,HourlyPrecipIn,Conditions,Clouds,dailyrainin,SoftwareType,DateUTC
2013-04-07 00:03:00,67.8,65.5,29.91,South,181,8.0,13.9,92,0.00,,,-99.99,FreeWX 2.03,2013-04-07 05:03:00,
2013-04-07 00:08:00,67.6,65.3,29.91,South,181,7.0,11.2,92,0.00,,,-99.99,FreeWX 2.03,2013-04-07 05:08:00,
2013-04-07 00:13:00,67.6,65.3,29.91,South,181,7.0,11.6,92,0.00,,,-99.99,FreeWX 2.03,2013-04-07 05:13:00,
2013-04-07 00:18:00,67.6,65.3,29.91,South,182,7.0,13.4,92,0.00,,,-99.99,FreeWX 2.03,2013-04-07 05:18:00,
2013-04-07 00:23:00,67.6,65.3,29.91,South,180,6.0,10.1,92,0.00,,,-99.99,FreeWX 2.03,2013-04-07 05:23:00,
2013-04-07 00:28:00,67.6,65.3,29.91,South,180,7.0,12.1,92,0.00,,,-99.99,FreeWX 2.03,2013-04-07 05:28:00,
2013-04-07 00:33:00,67.6,65.3,29.91,South,181,7.0,12.1,92,0.00,,,-99.99,FreeWX 2.03,2013-04-07 05:33:00,
2013-04-07 00:38:00,67.6,65.3,29.91,South,180,7.0,11.0,92,0.00,,,-99.99,FreeWX 2.03,2013-04-07 05:38:00,
2013-04-07 00:43:00,67.6,65.3,29.91,South,181,7.0,13.4,92,0.00,,,-99.99,FreeWX 2.03,2013-04-07 05:43:00,
2013-04-07 00:48:00,67.6,65.3,29.91,South,180,7.0,11.6,92,0.00,,,-99.99,FreeWX 2.03,2013-04-07 05:48:00,
2013-04-07 00:53:00,67.6,65.3,29.91,South,181,6.0,11.2,92,0.00,,,-99.99,FreeWX 2.03,2013-04-07 05:53:00,
2013-04-07 00:58:00,67.6,65.3,29.91,South,182,6.0,12.1,92,0.00,,,-99.99,FreeWX 2.03,2013-04-07 05:58:00,
2013-04-07 01:03:00,67.5,65.1,29.91,South,182,7.0,12.5,92,0.00,,,-99.99,FreeWX 2.03,2013-04-07 06:03:00,
2013-04-07 01:08:00,67.5,65.3,29.91,South,183,7.0,14.3,93,0.00,,,-99.99,FreeWX 2.03,2013-04-07 06:08:00,
2013-04-07 01:13:00,67.6,65.5,29.88,South,184,7.0,13.0,93,0.00,,,-99.99,FreeWX 2.03,2013-04-07 06:13:00,
2013-04-07 01:18:00,67.6,65.5,29.88,South,184,8.0,11.0,93,0.00,,,-99.99,FreeWX 2.03,2013-04-07 06:18:00,
2013-04-07 01:23:00,67.6,65.5,29.88,South,181,7.0,13.9,93,0.00,,,-99.99,FreeWX 2.03,2013-04-07 06:23:00,
2013-04-07 01:28:00,67.5,65.3,29.88,South,180,7.0,12.1,93,0.00,,,-99.99,FreeWX 2.03,2013-04-07 06:28:00,
2013-04-07 01:33:00,67.5,65.3,29.88,South,180,7.0,12.1,93,0.00,,,-99.99,FreeWX 2.03,2013-04-07 06:33:00,
2013-04-07 01:38:00,67.5,65.3,29.88,South,180,8.0,12.1,93,0.00,,,-99.99,FreeWX 2.03,2013-04-07 06:38:00,
2013-04-07 01:43:00,67.5,65.3,29.88,South,180,8.0,12.1,93,0.00,,,-99.99,FreeWX 2.03,2013-04-07 06:43:00,
2013-04-07 01:48:00,67.5,65.3,29.88,South,181,8.0,13.0,93,0.00,,,-99.99,FreeWX 2.03,2013-04-07 06:48:00,
2013-04-07 01:53:00,67.5,65.3,29.88,South,181,8.0,13.4,93,0.00,,,-99.99,FreeWX 2.03,2013-04-07 06:53:00,
2013-04-07 02:09:00,67.6,65.8,29.88,South,180,7.0,11.6,94,0.00,,,-99.99,FreeWX 2.03,2013-04-07 07:09:00,
2013-04-07 02:14:00,67.6,65.8,29.88,South,181,7.0,11.2,94,0.00,,,-99.99,FreeWX 2.03,2013-04-07 07:14:00,
2013-04-07 02:19:00,67.8,66.0,29.88,South,183,7.0,11.2,94,0.00,,,-99.99,FreeWX 2.03,2013-04-07 07:19:00,
2013-04-07 02:24:00,67.8,66.0,29.88,South,180,6.0,11.0,94,0.00,,,-99.99,FreeWX 2.03,2013-04-07 07:24:00,
2013-04-07 02:29:00,67.8,66.0,29.88,South,180,7.0,11.2,94,0.00,,,-99.99,FreeWX 2.03,2013-04-07 07:29:00,
2013-04-07 02:34:00,67.8,66.0,29.88,South,183,7.0,13.0,94,0.00,,,-99.99,FreeWX 2.03,2013-04-07 07:34:00,
2013-04-07 02:39:00,67.6,65.8,29.88,South,182,7.0,13.0,94,0.00,,,-99.99,FreeWX 2.03,2013-04-07 07:39:00,
2013-04-07 02:44:00,67.6,65.8,29.88,South,182,7.0,11.0,94,0.00,,,-99.99,FreeWX 2.03,2013-04-07 07:44:00,
2013-04-07 02:49:00,67.6,65.8,29.88,South,184,7.0,12.5,94,0.00,,,-99.99,FreeWX 2.03,2013-04-07 07:49:00,
2013-04-07 02:54:00,67.6,65.8,29.88,South,183,7.0,11.2,94,0.00,,,-99.99,FreeWX 2.03,2013-04-07 07:54:00,
2013-04-07 02:59:00,67.6,65.8,29.88,South,180,7.0,11.6,94,0.00,,,-99.99,FreeWX 2.03,2013-04-07 07:59:00,
2013-04-07 03:04:00,67.6,65.8,29.88,South,179,7.0,13.0,94,0.00,,,-99.99,FreeWX 2.03,2013-04-07 08:04:00,
2013-04-07 03:10:00,67.5,65.7,29.85,South,181,7.0,13.0,94,0.00,,,-99.99,FreeWX 2.03,2013-04-07 08:10:00,
2013-04-07 03:15:00,67.5,65.7,29.85,South,183,7.0,12.1,94,0.00,,,-99.99,FreeWX 2.03,2013-04-07 08:15:00,
2013-04-07 03:20:00,67.5,66.0,29.85,South,183,8.0,13.0,95,0.00,,,-99.99,FreeWX 2.03,2013-04-07 08:20:00,
2013-04-07 03:25:00,67.3,65.8,29.85,South,182,8.0,12.5,95,0.00,,,-99.99,FreeWX 2.03,2013-04-07 08:25:00,
2013-04-07 03:35:00,67.3,65.8,29.85,South,183,7.0,12.5,95,0.00,,,-99.99,FreeWX 2.03,2013-04-07 08:35:00,
2013-04-07 03:40:00,67.1,65.7,29.85,South,182,8.0,12.5,95,0.00,,,-99.99,FreeWX 2.03,2013-04-07 08:40:00,
2013-04-07 03:45:00,67.1,65.8,29.85,South,181,7.0,11.6,96,0.00,,,-99.99,FreeWX 2.03,2013-04-07 08:45:00,
2013-04-07 03:50:00,67.1,65.8,29.85,South,180,7.0,11.6,96,0.00,,,-99.99,FreeWX 2.03,2013-04-07 08:50:00,
2013-04-07 03:55:00,67.1,65.8,29.85,South,182,7.0,11.2,96,0.00,,,-99.99,FreeWX 2.03,2013-04-07 08:55:00,
2013-04-07 04:00:00,67.3,66.0,29.85,South,181,8.0,14.3,96,0.00,,,-99.99,FreeWX 2.03,2013-04-07 09:00:00,
2013-04-07 04:05:00,67.3,66.0,29.85,South,179,8.0,15.2,96,0.00,,,-99.99,FreeWX 2.03,2013-04-07 09:05:00,
2013-04-07 04:10:00,67.1,65.8,29.85,South,179,8.0,13.9,96,0.00,,,-99.99,FreeWX 2.03,2013-04-07 09:10:00,
2013-04-07 04:15:00,67.1,65.8,29.85,South,181,8.0,12.5,96,0.00,,,-99.99,FreeWX 2.03,2013-04-07 09:15:00,
2013-04-07 04:20:00,67.1,65.8,29.85,South,183,8.0,14.3,96,0.00,,,-99.99,FreeWX 2.03,2013-04-07 09:20:00,
2013-04-07 04:25:00,67.1,65.8,29.82,South,182,9.0,15.2,96,0.00,,,-99.99,FreeWX 2.03,2013-04-07 09:25:00,
2013-04-07 04:30:00,67.1,66.2,29.82,South,181,10.0,14.8,97,0.00,,,-99.99,FreeWX 2.03,2013-04-07 09:30:00,
2013-04-07 04:35:00,67.1,66.2,29.82,South,182,9.0,13.4,97,0.00,,,-99.99,FreeWX 2.03,2013-04-07 09:35:00,
2013-04-07 04:45:00,67.1,66.2,29.82,South,182,9.0,14.8,97,0.00,,,-99.99,FreeWX 2.03,2013-04-07 09:45:00,
2013-04-07 04:50:00,67.1,66.2,29.82,South,182,9.0,13.4,97,0.00,,,-99.99,FreeWX 2.03,2013-04-07 09:50:00,
2013-04-07 04:55:00,67.1,66.2,29.82,South,182,8.0,12.1,97,0.00,,,-99.99,FreeWX 2.03,2013-04-07 09:55:00,
2013-04-07 05:00:00,67.1,66.2,29.82,South,180,8.0,13.4,97,0.00,,,-99.99,FreeWX 2.03,2013-04-07 10:00:00,
2013-04-07 05:05:00,67.1,66.2,29.82,South,182,8.0,13.0,97,0.00,,,-99.99,FreeWX 2.03,2013-04-07 10:05:00,
2013-04-07 05:11:00,67.1,66.2,29.82,South,183,8.0,13.0,97,0.00,,,-99.99,FreeWX 2.03,2013-04-07 10:11:00,
2013-04-07 05:16:00,67.1,66.2,29.82,South,184,8.0,14.3,97,0.00,,,-99.99,FreeWX 2.03,2013-04-07 10:16:00,
2013-04-07 05:21:00,67.1,66.2,29.82,South,183,9.0,12.5,97,0.00,,,-99.99,FreeWX 2.03,2013-04-07 10:21:00,
2013-04-07 05:26:00,67.1,66.2,29.82,South,180,9.0,13.9,97,0.00,,,-99.99,FreeWX 2.03,2013-04-07 10:26:00,
2013-04-07 05:31:00,67.1,66.2,29.82,South,180,8.0,13.4,97,0.00,,,-99.99,FreeWX 2.03,2013-04-07 10:31:00,
2013-04-07 05:36:00,67.1,66.2,29.82,South,182,8.0,13.0,97,0.00,,,-99.99,FreeWX 2.03,2013-04-07 10:36:00,
2013-04-07 05:41:00,67.1,66.2,29.82,South,183,8.0,13.4,97,0.00,,,-99.99,FreeWX 2.03,2013-04-07 10:41:00,
2013-04-07 05:46:00,67.1,66.2,29.82,South,183,8.0,13.4,97,0.00,,,-99.99,FreeWX 2.03,2013-04-07 10:46:00,
2013-04-07 05:51:00,67.1,66.2,29.82,South,182,8.0,12.5,97,0.00,,,-99.99,FreeWX 2.03,2013-04-07 10:51:00,
2013-04-07 05:56:00,67.1,66.2,29.82,South,181,8.0,13.9,97,0.00,,,-99.99,FreeWX 2.03,2013-04-07 10:56:00,
2013-04-07 06:02:00,67.1,66.2,29.82,South,181,8.0,11.2,97,0.00,,,-99.99,FreeWX 2.03,2013-04-07 11:02:00,
2013-04-07 06:07:00,67.1,66.2,29.82,South,182,8.0,12.1,97,0.00,,,-99.99,FreeWX 2.03,2013-04-07 11:07:00,
2013-04-07 06:12:00,67.1,66.2,29.85,South,183,8.0,12.5,97,0.00,,,-99.99,FreeWX 2.03,2013-04-07 11:12:00,
2013-04-07 06:17:00,67.1,66.2,29.85,South,183,8.0,12.5,97,0.00,,,-99.99,FreeWX 2.03,2013-04-07 11:17:00,
2013-04-07 06:22:00,67.1,66.2,29.85,South,182,7.0,10.5,97,0.00,,,-99.99,FreeWX 2.03,2013-04-07 11:22:00,
2013-04-07 06:27:00,67.1,66.2,29.85,South,181,7.0,10.5,97,0.00,,,-99.99,FreeWX 2.03,2013-04-07 11:27:00,
2013-04-07 06:32:00,67.1,66.2,29.85,South,182,7.0,11.2,97,0.00,,,-99.99,FreeWX 2.03,2013-04-07 11:32:00,
2013-04-07 06:37:00,66.9,66.0,29.85,South,181,7.0,12.5,97,0.00,,,-99.99,FreeWX 2.03,2013-04-07 11:37:00,
2013-04-07 06:42:00,66.9,66.0,29.85,South,181,7.0,11.2,97,0.00,,,-99.99,FreeWX 2.03,2013-04-07 11:42:00,
2013-04-07 06:47:00,66.9,66.0,29.85,South,181,7.0,12.1,97,0.00,,,-99.99,FreeWX 2.03,2013-04-07 11:47:00,
2013-04-07 06:52:00,66.9,66.0,29.85,South,181,7.0,11.6,97,0.00,,,-99.99,FreeWX 2.03,2013-04-07 11:52:00,
2013-04-07 06:57:00,66.9,66.4,29.85,South,182,8.0,12.1,98,0.00,,,-99.99,FreeWX 2.03,2013-04-07 11:57:00,
2013-04-07 07:02:00,66.9,66.4,29.85,South,180,7.0,10.5,98,0.00,,,-99.99,FreeWX 2.03,2013-04-07 12:02:00,
2013-04-07 07:07:00,66.9,66.4,29.85,South,178,6.0,11.0,98,0.00,,,-99.99,FreeWX 2.03,2013-04-07 12:07:00,
2013-04-07 07:12:00,66.9,66.4,29.85,South,180,7.0,11.2,98,0.00,,,-99.99,FreeWX 2.03,2013-04-07 12:12:00,
2013-04-07 07:17:00,66.9,66.4,29.85,South,182,7.0,11.0,98,0.00,,,-99.99,FreeWX 2.03,2013-04-07 12:17:00,
2013-04-07 07:22:00,67.1,66.6,29.85,South,181,7.0,11.6,98,0.00,,,-99.99,FreeWX 2.03,2013-04-07 12:22:00,
2013-04-07 07:27:00,67.1,66.6,29.85,South,180,7.0,11.2,98,0.00,,,-99.99,FreeWX 2.03,2013-04-07 12:27:00,
2013-04-07 07:32:00,67.1,66.6,29.85,South,180,7.0,12.1,98,0.00,,,-99.99,FreeWX 2.03,2013-04-07 12:32:00,
2013-04-07 07:37:00,67.1,66.6,29.85,South,181,8.0,12.5,98,0.00,,,-99.99,FreeWX 2.03,2013-04-07 12:37:00,
2013-04-07 07:42:00,67.3,66.7,29.85,South,183,7.0,11.6,98,0.00,,,-99.99,FreeWX 2.03,2013-04-07 12:42:00,
2013-04-07 07:47:00,67.3,66.7,29.85,South,181,7.0,12.1,98,0.00,,,-99.99,FreeWX 2.03,2013-04-07 12:47:00,
2013-04-07 07:52:00,67.5,66.9,29.85,South,182,7.0,11.0,98,0.00,,,-99.99,FreeWX 2.03,2013-04-07 12:52:00,
2013-04-07 07:57:00,67.5,66.9,29.85,South,181,6.0,11.0,98,0.00,,,-99.99,FreeWX 2.03,2013-04-07 12:57:00,
2013-04-07 08:02:00,67.6,67.1,29.85,South,179,6.0,10.5,98,0.00,,,-99.99,FreeWX 2.03,2013-04-07 13:02:00,
2013-04-07 08:07:00,67.8,67.3,29.85,South,182,7.0,15.2,98,0.00,,,-99.99,FreeWX 2.03,2013-04-07 13:07:00,
2013-04-07 08:12:00,67.8,66.9,29.88,South,183,8.0,12.1,97,0.00,,,-99.99,FreeWX 2.03,2013-04-07 13:12:00,
2013-04-07 08:17:00,68.0,67.1,29.88,South,182,8.0,12.5,97,0.00,,,-99.99,FreeWX 2.03,2013-04-07 13:17:00,
2013-04-07 08:22:00,68.0,67.1,29.88,South,182,8.0,12.5,97,0.00,,,-99.99,FreeWX 2.03,2013-04-07 13:22:00,
2013-04-07 08:28:00,68.2,67.3,29.88,South,181,8.0,12.5,97,0.00,,,-99.99,FreeWX 2.03,2013-04-07 13:28:00,
2013-04-07 08:33:00,68.4,67.5,29.88,South,181,8.0,11.6,97,0.00,,,-99.99,FreeWX 2.03,2013-04-07 13:33:00,
2013-04-07 08:38:00,68.4,67.5,29.88,South,180,8.0,13.0,97,0.00,,,-99.99,FreeWX 2.03,2013-04-07 13:38:00,
2013-04-07 08:43:00,68.5,67.3,29.88,South,179,9.0,13.0,96,0.00,,,-99.99,FreeWX 2.03,2013-04-07 13:43:00,
2013-04-07 08:48:00,68.9,67.6,29.88,South,180,9.0,13.4,96,0.00,,,-99.99,FreeWX 2.03,2013-04-07 13:48:00,
2013-04-07 08:53:00,68.9,67.6,29.88,South,181,9.0,14.8,96,0.00,,,-99.99,FreeWX 2.03,2013-04-07 13:53:00,
2013-04-07 08:58:00,69.1,67.8,29.88,South,182,9.0,13.9,96,0.00,,,-99.99,FreeWX 2.03,2013-04-07 13:58:00,
2013-04-07 09:03:00,69.3,67.8,29.88,South,180,9.0,12.5,95,0.00,,,-99.99,FreeWX 2.03,2013-04-07 14:03:00,
2013-04-07 09:08:00,69.4,68.0,29.88,South,181,9.0,13.9,95,0.00,,,-99.99,FreeWX 2.03,2013-04-07 14:08:00,
2013-04-07 09:13:00,69.6,67.8,29.88,South,180,8.0,12.1,94,0.00,,,-99.99,FreeWX 2.03,2013-04-07 14:13:00,
2013-04-07 09:18:00,69.8,67.6,29.88,South,180,7.0,15.2,93,0.00,,,-99.99,FreeWX 2.03,2013-04-07 14:18:00,
2013-04-07 09:23:00,70.0,67.8,29.88,South,182,8.0,14.3,93,0.00,,,-99.99,FreeWX 2.03,2013-04-07 14:23:00,
2013-04-07 09:28:00,70.3,67.8,29.91,South,183,10.0,15.4,92,0.00,,,-99.99,FreeWX 2.03,2013-04-07 14:28:00,
2013-04-07 09:33:00,70.7,68.2,29.91,South,183,10.0,15.4,92,0.00,,,-99.99,FreeWX 2.03,2013-04-07 14:33:00,
2013-04-07 09:38:00,70.9,68.2,29.91,South,181,10.0,15.2,91,0.00,,,-99.99,FreeWX 2.03,2013-04-07 14:38:00,
2013-04-07 09:43:00,70.9,67.8,29.91,South,180,9.0,14.3,90,0.00,,,-99.99,FreeWX 2.03,2013-04-07 14:43:00,
2013-04-07 09:48:00,71.1,68.0,29.91,South,181,8.0,15.4,90,0.00,,,-99.99,FreeWX 2.03,2013-04-07 14:48:00,
2013-04-07 09:53:00,71.2,68.2,29.91,South,182,9.0,14.3,90,0.00,,,-99.99,FreeWX 2.03,2013-04-07 14:53:00,
2013-04-07 09:58:00,71.4,68.0,29.91,South,182,8.0,14.3,89,0.00,,,-99.99,FreeWX 2.03,2013-04-07 14:58:00,
2013-04-07 10:03:00,71.6,68.2,29.91,South,180,8.0,12.5,89,0.00,,,-99.99,FreeWX 2.03,2013-04-07 15:03:00,
2013-04-07 10:08:00,71.8,68.0,29.91,South,180,8.0,12.1,88,0.00,,,-99.99,FreeWX 2.03,2013-04-07 15:08:00,
2013-04-07 10:13:00,72.0,68.2,29.91,South,179,8.0,12.1,88,0.00,,,-99.99,FreeWX 2.03,2013-04-07 15:13:00,
2013-04-07 10:18:00,72.1,68.0,29.91,South,176,8.0,11.2,87,0.00,,,-99.99,FreeWX 2.03,2013-04-07 15:18:00,
2013-04-07 10:23:00,72.3,68.2,29.91,South,175,7.0,13.0,87,0.00,,,-99.99,FreeWX 2.03,2013-04-07 15:23:00,
2013-04-07 10:28:00,72.7,68.5,29.91,South,175,7.0,13.4,87,0.00,,,-99.99,FreeWX 2.03,2013-04-07 15:28:00,
2013-04-07 10:33:00,72.7,68.2,29.91,South,177,8.0,11.2,86,0.00,,,-99.99,FreeWX 2.03,2013-04-07 15:33:00,
2013-04-07 10:38:00,72.9,68.4,29.91,South,175,8.0,11.6,86,0.00,,,-99.99,FreeWX 2.03,2013-04-07 15:38:00,
2013-04-07 10:59:00,75.7,69.1,29.91,South,177,8.0,14.3,80,0.00,,,-99.99,FreeWX 2.03,2013-04-07 15:59:00,
2013-04-07 11:04:00,76.3,68.9,29.91,South,177,9.0,15.4,78,0.00,,,-99.99,FreeWX 2.03,2013-04-07 16:04:00,
2013-04-07 11:10:00,76.8,69.1,29.91,South,174,9.0,14.8,77,0.00,,,-99.99,FreeWX 2.03,2013-04-07 16:10:00,
2013-04-07 11:15:00,77.5,69.4,29.91,South,172,8.0,12.5,76,0.00,,,-99.99,FreeWX 2.03,2013-04-07 16:15:00,
2013-04-07 11:20:00,77.9,68.9,29.91,South,174,8.0,13.9,74,0.00,,,-99.99,FreeWX 2.03,2013-04-07 16:20:00,
2013-04-07 11:25:00,78.1,68.4,29.91,South,174,9.0,13.0,72,0.00,,,-99.99,FreeWX 2.03,2013-04-07 16:25:00,
2013-04-07 11:30:00,78.1,68.4,29.91,South,173,10.0,14.3,72,0.00,,,-99.99,FreeWX 2.03,2013-04-07 16:30:00,
2013-04-07 11:35:00,77.5,66.9,29.91,South,172,10.0,15.9,70,0.00,,,-99.99,FreeWX 2.03,2013-04-07 16:35:00,
2013-04-07 11:40:00,77.2,66.6,29.91,South,173,10.0,15.4,70,0.00,,,-99.99,FreeWX 2.03,2013-04-07 16:40:00,
2013-04-07 11:45:00,76.8,66.7,29.91,South,174,10.0,14.3,71,0.00,,,-99.99,FreeWX 2.03,2013-04-07 16:45:00,
2013-04-07 11:50:00,76.8,67.1,29.91,South,171,10.0,16.3,72,0.00,,,-99.99,FreeWX 2.03,2013-04-07 16:50:00,
2013-04-07 11:55:00,77.0,67.3,29.91,SSE,168,10.0,15.2,72,0.00,,,-99.99,FreeWX 2.03,2013-04-07 16:55:00,
2013-04-07 12:00:00,77.4,67.3,29.91,SSE,168,10.0,15.2,71,0.00,,,-99.99,FreeWX 2.03,2013-04-07 17:00:00,
2013-04-07 12:05:00,77.5,66.9,29.91,SSE,168,10.0,16.3,70,0.00,,,-99.99,FreeWX 2.03,2013-04-07 17:05:00,
2013-04-07 12:10:00,77.5,66.9,29.91,SSE,167,10.0,15.4,70,0.00,,,-99.99,FreeWX 2.03,2013-04-07 17:10:00,
2013-04-07 12:15:00,77.5,66.6,29.91,SSE,165,10.0,16.8,69,0.00,,,-99.99,FreeWX 2.03,2013-04-07 17:15:00,
2013-04-07 12:20:00,77.4,66.4,29.91,SSE,162,10.0,15.9,69,0.00,,,-99.99,FreeWX 2.03,2013-04-07 17:20:00,
2013-04-07 12:25:00,77.2,66.2,29.91,SSE,162,9.0,16.8,69,0.00,,,-99.99,FreeWX 2.03,2013-04-07 17:25:00,
2013-04-07 12:30:00,77.0,65.7,29.91,SSE,163,10.0,16.8,68,0.00,,,-99.99,FreeWX 2.03,2013-04-07 17:30:00,
2013-04-07 12:35:00,76.8,65.8,29.91,SSE,160,10.0,13.9,69,0.00,,,-99.99,FreeWX 2.03,2013-04-07 17:35:00,
2013-04-07 12:40:00,76.6,65.7,29.91,SSE,159,10.0,15.9,69,0.00,,,-99.99,FreeWX 2.03,2013-04-07 17:40:00,
2013-04-07 12:45:00,76.6,66.0,29.91,SSE,160,10.0,17.7,70,0.00,,,-99.99,FreeWX 2.03,2013-04-07 17:45:00,
2013-04-07 12:50:00,76.6,66.0,29.91,SSE,160,10.0,16.3,70,0.00,,,-99.99,FreeWX 2.03,2013-04-07 17:50:00,
2013-04-07 12:55:00,76.6,66.0,29.88,SSE,156,10.0,15.2,70,0.00,,,-99.99,FreeWX 2.03,2013-04-07 17:55:00,
2013-04-07 13:00:00,76.6,65.7,29.88,SSE,154,10.0,17.7,69,0.00,,,-99.99,FreeWX 2.03,2013-04-07 18:00:00,
2013-04-07 13:06:00,76.6,65.7,29.88,SSE,154,11.0,17.2,69,0.00,,,-99.99,FreeWX 2.03,2013-04-07 18:06:00,
2013-04-07 13:11:00,76.8,65.8,29.88,SSE,154,11.0,15.4,69,0.00,,,-99.99,FreeWX 2.03,2013-04-07 18:11:00,
2013-04-07 13:16:00,76.8,65.5,29.88,SSE,155,11.0,17.2,68,0.00,,,-99.99,FreeWX 2.03,2013-04-07 18:16:00,
2013-04-07 13:21:00,77.0,65.7,29.88,SSE,156,11.0,17.2,68,0.00,,,-99.99,FreeWX 2.03,2013-04-07 18:21:00,
2013-04-07 13:26:00,77.2,65.8,29.88,SSE,154,11.0,17.7,68,0.00,,,-99.99,FreeWX 2.03,2013-04-07 18:26:00,
2013-04-07 13:31:00,77.4,66.0,29.88,SSE,153,11.0,17.7,68,0.00,,,-99.99,FreeWX 2.03,2013-04-07 18:31:00,
2013-04-07 13:36:00,77.2,65.3,29.88,SSE,154,11.0,16.8,67,0.00,,,-99.99,FreeWX 2.03,2013-04-07 18:36:00,
2013-04-07 13:41:00,77.2,65.3,29.85,SSE,154,10.0,18.1,67,0.00,,,-99.99,FreeWX 2.03,2013-04-07 18:41:00,
2013-04-07 13:46:00,77.2,65.3,29.85,SSE,154,11.0,18.1,67,0.00,,,-99.99,FreeWX 2.03,2013-04-07 18:46:00,
2013-04-07 13:51:00,76.8,64.9,29.85,SSE,153,11.0,15.4,67,0.00,,,-99.99,FreeWX 2.03,2013-04-07 18:51:00,
2013-04-07 13:56:00,76.8,64.9,29.85,SSE,151,10.0,15.4,67,0.00,,,-99.99,FreeWX 2.03,2013-04-07 18:56:00,
2013-04-07 14:06:00,77.0,65.1,29.85,SSE,150,11.0,18.6,67,0.00,,,-99.99,FreeWX 2.03,2013-04-07 19:06:00,
2013-04-07 14:11:00,76.8,65.5,29.85,SSE,148,10.0,15.2,68,0.00,,,-99.99,FreeWX 2.03,2013-04-07 19:11:00,
2013-04-07 14:16:00,76.8,64.9,29.85,SE,146,11.0,17.2,67,0.00,,,-99.99,FreeWX 2.03,2013-04-07 19:16:00,
2013-04-07 14:21:00,77.0,65.7,29.85,SE,146,11.0,15.2,68,0.00,,,-99.99,FreeWX 2.03,2013-04-07 19:21:00,
2013-04-07 14:26:00,77.2,65.8,29.85,SSE,147,10.0,15.9,68,0.00,,,-99.99,FreeWX 2.03,2013-04-07 19:26:00,
2013-04-07 14:31:00,77.0,65.7,29.85,SSE,147,11.0,15.9,68,0.00,,,-99.99,FreeWX 2.03,2013-04-07 19:31:00,
2013-04-07 14:36:00,77.0,65.1,29.85,SSE,147,11.0,19.5,67,0.00,,,-99.99,FreeWX 2.03,2013-04-07 19:36:00,
2013-04-07 14:47:00,77.0,65.7,29.85,SSE,147,11.0,17.2,68,0.00,,,-99.99,FreeWX 2.03,2013-04-07 19:47:00,
2013-04-07 14:52:00,77.2,65.8,29.85,SE,146,10.0,16.3,68,0.00,,,-99.99,FreeWX 2.03,2013-04-07 19:52:00,
2013-04-07 14:57:00,77.2,65.8,29.82,SSE,147,10.0,16.3,68,0.00,,,-99.99,FreeWX 2.03,2013-04-07 19:57:00,
2013-04-07 15:02:00,77.2,65.8,29.82,SE,145,10.0,16.8,68,0.00,,,-99.99,FreeWX 2.03,2013-04-07 20:02:00,
2013-04-07 15:07:00,77.0,65.7,29.82,SE,144,11.0,16.3,68,0.00,,,-99.99,FreeWX 2.03,2013-04-07 20:07:00,
2013-04-07 15:12:00,76.8,65.5,29.82,SE,146,11.0,15.9,68,0.00,,,-99.99,FreeWX 2.03,2013-04-07 20:12:00,
2013-04-07 15:17:00,76.8,65.8,29.82,SE,145,10.0,15.2,69,0.00,,,-99.99,FreeWX 2.03,2013-04-07 20:17:00,
2013-04-07 15:22:00,77.0,66.0,29.82,SE,145,10.0,16.3,69,0.00,,,-99.99,FreeWX 2.03,2013-04-07 20:22:00,
2013-04-07 15:27:00,77.0,66.4,29.82,SE,145,10.0,14.8,70,0.00,,,-99.99,FreeWX 2.03,2013-04-07 20:27:00,
2013-04-07 15:32:00,77.0,66.0,29.82,SE,145,11.0,15.4,69,0.00,,,-99.99,FreeWX 2.03,2013-04-07 20:32:00,
2013-04-07 15:37:00,76.8,65.8,29.82,SE,145,11.0,16.8,69,0.00,,,-99.99,FreeWX 2.03,2013-04-07 20:37:00,
2013-04-07 15:42:00,76.6,65.7,29.82,SE,146,10.0,15.4,69,0.00,,,-99.99,FreeWX 2.03,2013-04-07 20:42:00,
2013-04-07 15:47:00,76.5,65.5,29.82,SSE,147,10.0,14.8,69,0.00,,,-99.99,FreeWX 2.03,2013-04-07 20:47:00,
2013-04-07 15:52:00,76.3,65.8,29.82,SSE,149,10.0,14.8,70,0.00,,,-99.99,FreeWX 2.03,2013-04-07 20:52:00,
2013-04-07 15:57:00,76.3,66.2,29.82,SSE,147,9.0,14.8,71,0.00,,,-99.99,FreeWX 2.03,2013-04-07 20:57:00,
2013-04-07 16:03:00,76.6,66.6,29.82,SE,146,9.0,14.8,71,0.00,,,-99.99,FreeWX 2.03,2013-04-07 21:03:00,
2013-04-07 16:08:00,76.8,66.7,29.82,SSE,150,10.0,18.1,71,0.00,,,-99.99,FreeWX 2.03,2013-04-07 21:08:00,
2013-04-07 16:13:00,76.8,66.7,29.82,SSE,149,11.0,17.2,71,0.00,,,-99.99,FreeWX 2.03,2013-04-07 21:13:00,
2013-04-07 16:18:00,76.8,66.7,29.82,SSE,147,11.0,17.2,71,0.00,,,-99.99,FreeWX 2.03,2013-04-07 21:18:00,
2013-04-07 16:23:00,76.6,66.6,29.82,SSE,147,11.0,17.2,71,0.00,,,-99.99,FreeWX 2.03,2013-04-07 21:23:00,
2013-04-07 16:28:00,76.8,66.7,29.79,SE,146,11.0,19.0,71,0.00,,,-99.99,FreeWX 2.03,2013-04-07 21:28:00,
2013-04-07 16:33:00,76.8,66.7,29.79,SE,145,10.0,15.4,71,0.00,,,-99.99,FreeWX 2.03,2013-04-07 21:33:00,
2013-04-07 16:38:00,76.6,66.6,29.79,SE,143,10.0,18.6,71,0.00,,,-99.99,FreeWX 2.03,2013-04-07 21:38:00,
2013-04-07 16:43:00,76.5,66.4,29.79,SE,144,10.0,15.2,71,0.00,,,-99.99,FreeWX 2.03,2013-04-07 21:43:00,
2013-04-07 16:48:00,76.3,66.6,29.79,SE,145,9.0,14.3,72,0.00,,,-99.99,FreeWX 2.03,2013-04-07 21:48:00,
2013-04-07 16:53:00,76.1,66.0,29.79,SSE,148,10.0,16.8,71,0.00,,,-99.99,FreeWX 2.03,2013-04-07 21:53:00,
2013-04-07 16:58:00,76.1,66.4,29.79,SE,146,10.0,14.3,72,0.00,,,-99.99,FreeWX 2.03,2013-04-07 21:58:00,
2013-04-07 17:03:00,76.1,66.4,29.79,SE,142,10.0,17.2,72,0.00,,,-99.99,FreeWX 2.03,2013-04-07 22:03:00,
2013-04-07 17:08:00,76.1,66.4,29.79,SE,143,9.0,14.8,72,0.00,,,-99.99,FreeWX 2.03,2013-04-07 22:08:00,
2013-04-07 17:13:00,76.1,66.7,29.79,SE,145,9.0,17.7,73,0.00,,,-99.99,FreeWX 2.03,2013-04-07 22:13:00,
2013-04-07 17:18:00,76.1,66.7,29.79,SE,144,10.0,17.2,73,0.00,,,-99.99,FreeWX 2.03,2013-04-07 22:18:00,
2013-04-07 17:23:00,76.1,66.7,29.79,SE,144,10.0,15.9,73,0.00,,,-99.99,FreeWX 2.03,2013-04-07 22:23:00,
2013-04-07 17:28:00,75.9,66.6,29.79,SSE,148,11.0,18.6,73,0.00,,,-99.99,FreeWX 2.03,2013-04-07 22:28:00,
2013-04-07 17:33:00,76.1,66.7,29.79,SSE,147,11.0,15.9,73,0.00,,,-99.99,FreeWX 2.03,2013-04-07 22:33:00,
2013-04-07 17:38:00,75.9,66.6,29.79,SE,145,11.0,17.7,73,0.00,,,-99.99,FreeWX 2.03,2013-04-07 22:38:00,
2013-04-07 17:43:00,75.6,66.2,29.79,SSE,148,12.0,18.6,73,0.00,,,-99.99,FreeWX 2.03,2013-04-07 22:43:00,
2013-04-07 17:54:00,75.2,66.4,29.79,SE,146,10.0,15.2,74,0.00,,,-99.99,FreeWX 2.03,2013-04-07 22:54:00,
2013-04-07 17:59:00,75.4,66.9,29.79,SSE,147,10.0,15.9,75,0.00,,,-99.99,FreeWX 2.03,2013-04-07 22:59:00,
2013-04-07 18:09:00,75.0,66.9,29.79,SE,139,10.0,15.9,76,0.00,,,-99.99,FreeWX 2.03,2013-04-07 23:09:00,
2013-04-07 18:14:00,74.8,67.1,29.79,SE,139,10.0,15.4,77,0.00,,,-99.99,FreeWX 2.03,2013-04-07 23:14:00,
2013-04-07 18:19:00,74.7,66.9,29.79,SE,142,10.0,16.8,77,0.00,,,-99.99,FreeWX 2.03,2013-04-07 23:19:00,
2013-04-07 18:35:00,73.8,66.7,29.79,SE,142,11.0,17.7,79,0.00,,,-99.99,FreeWX 2.03,2013-04-07 23:35:00,
2013-04-07 18:40:00,73.8,66.7,29.79,SE,143,10.0,15.9,79,0.00,,,-99.99,FreeWX 2.03,2013-04-07 23:40:00,
2013-04-07 18:45:00,73.6,67.1,29.79,SE,145,10.0,15.4,80,0.00,,,-99.99,FreeWX 2.03,2013-04-07 23:45:00,
2013-04-07 18:50:00,73.4,66.9,29.79,SSE,148,9.0,12.5,80,0.00,,,-99.99,FreeWX 2.03,2013-04-07 23:50:00,
2013-04-07 18:55:00,73.6,67.5,29.79,SSE,150,10.0,16.8,81,0.00,,,-99.99,FreeWX 2.03,2013-04-07 23:55:00,
2013-04-07 19:00:00,73.6,67.5,29.79,SSE,147,10.0,14.8,81,0.00,,,-99.99,FreeWX 2.03,2013-04-08 00:00:00,
2013-04-07 19:05:00,73.4,67.3,29.79,SSE,148,10.0,14.8,81,0.00,,,-99.99,FreeWX 2.03,2013-04-08 00:05:00,
2013-04-07 19:10:00,73.4,67.3,29.79,SSE,152,10.0,14.8,81,0.00,,,-99.99,FreeWX 2.03,2013-04-08 00:10:00,
2013-04-07 19:15:00,73.2,67.1,29.79,SSE,154,10.0,14.8,81,0.00,,,-99.99,FreeWX 2.03,2013-04-08 00:15:00,
2013-04-07 19:20:00,73.0,67.3,29.79,SSE,154,9.0,13.9,82,0.00,,,-99.99,FreeWX 2.03,2013-04-08 00:20:00,
2013-04-07 19:25:00,72.7,66.9,29.79,SSE,153,9.0,18.1,82,0.00,,,-99.99,FreeWX 2.03,2013-04-08 00:25:00,
2013-04-07 19:30:00,72.5,67.1,29.79,SSE,157,10.0,14.3,83,0.00,,,-99.99,FreeWX 2.03,2013-04-08 00:30:00,
2013-04-07 19:35:00,72.1,67.1,29.79,SSE,158,8.0,12.1,84,0.00,,,-99.99,FreeWX 2.03,2013-04-08 00:35:00,
2013-04-07 19:40:00,72.0,67.3,29.79,SSE,155,8.0,12.1,85,0.00,,,-99.99,FreeWX 2.03,2013-04-08 00:40:00,
2013-04-07 19:45:00,71.8,67.1,29.79,SSE,157,7.0,11.6,85,0.00,,,-99.99,FreeWX 2.03,2013-04-08 00:45:00,
2013-04-07 19:50:00,71.6,67.1,29.79,SSE,160,8.0,14.8,86,0.00,,,-99.99,FreeWX 2.03,2013-04-08 00:50:00,
2013-04-07 19:55:00,71.2,67.1,29.79,SSE,160,8.0,13.4,87,0.00,,,-99.99,FreeWX 2.03,2013-04-08 00:55:00,
2013-04-07 20:00:00,71.2,67.5,29.79,SSE,162,8.0,12.5,88,0.00,,,-99.99,FreeWX 2.03,2013-04-08 01:00:00,
2013-04-07 20:05:00,71.1,67.3,29.79,SSE,165,9.0,13.4,88,0.00,,,-99.99,FreeWX 2.03,2013-04-08 01:05:00,
2013-04-07 20:10:00,70.9,67.5,29.79,SSE,164,8.0,12.5,89,0.00,,,-99.99,FreeWX 2.03,2013-04-08 01:10:00,
2013-04-07 20:15:00,70.7,67.6,29.79,SSE,164,8.0,13.4,90,0.00,,,-99.99,FreeWX 2.03,2013-04-08 01:15:00,
2013-04-07 20:20:00,70.7,67.6,29.79,SSE,167,9.0,14.3,90,0.00,,,-99.99,FreeWX 2.03,2013-04-08 01:20:00,
2013-04-07 20:25:00,70.5,67.8,29.79,SSE,164,8.0,13.0,91,0.00,,,-99.99,FreeWX 2.03,2013-04-08 01:25:00,
2013-04-07 20:31:00,70.5,67.8,29.79,SSE,165,8.0,13.0,91,0.00,,,-99.99,FreeWX 2.03,2013-04-08 01:31:00,
2013-04-07 20:36:00,70.3,67.6,29.79,South,169,8.0,11.6,91,0.00,,,-99.99,FreeWX 2.03,2013-04-08 01:36:00,
2013-04-07 20:41:00,70.3,67.8,29.82,South,169,8.0,13.9,92,0.00,,,-99.99,FreeWX 2.03,2013-04-08 01:41:00,
2013-04-07 20:46:00,70.3,67.8,29.82,South,169,8.0,12.5,92,0.00,,,-99.99,FreeWX 2.03,2013-04-08 01:46:00,
2013-04-07 20:51:00,70.3,67.8,29.82,SSE,168,8.0,14.3,92,0.00,,,-99.99,FreeWX 2.03,2013-04-08 01:51:00,
2013-04-07 20:56:00,70.2,67.6,29.82,South,169,8.0,11.2,92,0.00,,,-99.99,FreeWX 2.03,2013-04-08 01:56:00,
2013-04-07 21:01:00,70.2,68.0,29.82,South,170,8.0,12.5,93,0.00,,,-99.99,FreeWX 2.03,2013-04-08 02:01:00,
2013-04-07 21:06:00,70.2,68.0,29.82,South,169,8.0,12.1,93,0.00,,,-99.99,FreeWX 2.03,2013-04-08 02:06:00,
2013-04-07 21:11:00,70.2,68.0,29.82,South,170,8.0,11.6,93,0.00,,,-99.99,FreeWX 2.03,2013-04-08 02:11:00,
2013-04-07 21:16:00,70.2,68.4,29.82,South,169,8.0,11.2,94,0.00,,,-99.99,FreeWX 2.03,2013-04-08 02:16:00,
2013-04-07 21:21:00,70.2,68.4,29.82,SSE,167,8.0,12.1,94,0.00,,,-99.99,FreeWX 2.03,2013-04-08 02:21:00,
2013-04-07 21:26:00,70.0,68.2,29.82,SSE,166,8.0,11.6,94,0.00,,,-99.99,FreeWX 2.03,2013-04-08 02:26:00,
2013-04-07 21:31:00,70.2,68.4,29.82,South,169,8.0,11.6,94,0.00,,,-99.99,FreeWX 2.03,2013-04-08 02:31:00,
2013-04-07 21:36:00,70.2,68.7,29.82,South,170,7.0,12.1,95,0.00,,,-99.99,FreeWX 2.03,2013-04-08 02:36:00,
2013-04-07 21:46:00,70.0,68.5,29.82,South,173,8.0,12.1,95,0.00,,,-99.99,FreeWX 2.03,2013-04-08 02:46:00,
2013-04-07 21:57:00,70.0,68.5,29.82,South,172,7.0,11.2,95,0.00,,,-99.99,FreeWX 2.03,2013-04-08 02:57:00,
2013-04-07 22:02:00,70.0,68.7,29.82,South,174,8.0,13.0,96,0.00,,,-99.99,FreeWX 2.03,2013-04-08 03:02:00,
2013-04-07 22:07:00,69.8,68.5,29.82,South,175,8.0,13.0,96,0.00,,,-99.99,FreeWX 2.03,2013-04-08 03:07:00,
2013-04-07 22:12:00,69.8,68.5,29.82,South,177,7.0,11.6,96,0.00,,,-99.99,FreeWX 2.03,2013-04-08 03:12:00,
2013-04-07 22:17:00,69.8,68.5,29.82,South,175,7.0,13.0,96,0.00,,,-99.99,FreeWX 2.03,2013-04-08 03:17:00,
2013-04-07 22:22:00,70.0,68.7,29.82,South,174,8.0,12.5,96,0.00,,,-99.99,FreeWX 2.03,2013-04-08 03:22:00,
2013-04-07 22:27:00,69.8,68.5,29.82,South,175,8.0,13.4,96,0.00,,,-99.99,FreeWX 2.03,2013-04-08 03:27:00,
2013-04-07 22:32:00,69.8,68.5,29.82,South,177,7.0,12.1,96,0.00,,,-99.99,FreeWX 2.03,2013-04-08 03:32:00,
2013-04-07 22:37:00,69.8,68.9,29.82,South,177,7.0,11.0,97,0.00,,,-99.99,FreeWX 2.03,2013-04-08 03:37:00,
2013-04-07 22:42:00,70.0,69.1,29.82,South,177,7.0,14.3,97,0.00,,,-99.99,FreeWX 2.03,2013-04-08 03:42:00,
2013-04-07 22:53:00,70.0,69.1,29.82,South,177,8.0,11.6,97,0.00,,,-99.99,FreeWX 2.03,2013-04-08 03:53:00,
2013-04-07 22:58:00,69.8,68.9,29.82,South,176,8.0,11.6,97,0.00,,,-99.99,FreeWX 2.03,2013-04-08 03:58:00,
2013-04-07 23:03:00,69.8,68.9,29.82,South,176,8.0,13.9,97,0.00,,,-99.99,FreeWX 2.03,2013-04-08 04:03:00,
2013-04-07 23:08:00,69.6,68.7,29.82,South,178,8.0,12.1,97,0.00,,,-99.99,FreeWX 2.03,2013-04-08 04:08:00,
2013-04-07 23:13:00,69.8,68.9,29.82,South,177,8.0,14.8,97,0.00,,,-99.99,FreeWX 2.03,2013-04-08 04:13:00,
2013-04-07 23:18:00,69.8,68.9,29.82,South,178,9.0,14.8,97,0.00,,,-99.99,FreeWX 2.03,2013-04-08 04:18:00,
2013-04-07 23:23:00,69.8,69.3,29.82,South,179,9.0,15.2,98,0.00,,,-99.99,FreeWX 2.03,2013-04-08 04:23:00,
2013-04-07 23:28:00,69.8,69.3,29.82,South,177,10.0,15.9,98,0.00,,,-99.99,FreeWX 2.03,2013-04-08 04:28:00,
2013-04-07 23:33:00,69.8,69.3,29.82,South,176,10.0,13.4,98,0.00,,,-99.99,FreeWX 2.03,2013-04-08 04:33:00,
2013-04-07 23:38:00,69.8,69.3,29.82,South,176,10.0,15.9,98,0.00,,,-99.99,FreeWX 2.03,2013-04-08 04:38:00,
2013-04-07 23:43:00,69.8,69.3,29.82,South,177,9.0,14.8,98,0.00,,,-99.99,FreeWX 2.03,2013-04-08 04:43:00,
2013-04-07 23:48:00,70.0,69.4,29.82,South,178,10.0,16.3,98,0.00,,,-99.99,FreeWX 2.03,2013-04-08 04:48:00,
2013-04-07 23:53:00,69.8,69.3,29.82,South,178,10.0,18.6,98,0.00,,,-99.99,FreeWX 2.03,2013-04-08 04:53:00,
2013-04-07 23:58:00,69.8,69.3,29.79,South,179,11.0,15.4,98,0.00,,,-99.99,FreeWX 2.03,2013-04-08 04:58:00,